This is the latest recevied weather packets stored in our database for station/object N2XP-2. If no packets are shown the sender has not sent any weather packets the latest 10 day(s).
| Time | Temp. | Humidity | Pressure | Rain* | Wind** | Luminosity | Snow |
|---|---|---|---|---|---|---|---|
| 1778072116 | 20.56° C | 73% | 1010.6 hPa | 0 mm | 1.34 m/s, 184° | - | - |
| 1778072002 | 20° C | 74% | 1010.6 hPa | 0 mm | 1.34 m/s, 193° | - | - |
| 1778071817 | 20° C | 74% | 1010.6 hPa | 0 mm | 1.34 m/s, 193° | - | - |
| 1778071518 | 20° C | 75% | 1010.5 hPa | 0 mm | 1.79 m/s, 238° | - | - |
| 1778071215 | 20° C | 75% | 1010.5 hPa | 0 mm | 1.79 m/s, 122° | - | - |
| 1778070916 | 20° C | 75% | 1010.5 hPa | 0 mm | 1.34 m/s, 203° | - | - |
| 1778070867 | 19.44° C | 77% | 1010.7 hPa | 0 mm | 1.79 m/s, 269° | - | - |
| 1778070860 | 19.44° C | 76% | 1010.6 hPa | 0 mm | 1.34 m/s, 207° | - | - |
| 1778070855 | 19.44° C | 75% | 1010.5 hPa | 0 mm | 1.79 m/s, 231° | - | - |
| 1778070617 | 20° C | 75% | 1010.5 hPa | 0 mm | 2.24 m/s, 194° | - | - |
| 1778070314 | 20° C | 75% | 1010.5 hPa | 0 mm | 2.24 m/s, 304° | - | - |
| 1778070014 | 19.44° C | 76% | 1010.6 hPa | 0 mm | 2.24 m/s, 211° | - | - |
| 1778069715 | 19.44° C | 77% | 1010.7 hPa | 0 mm | 1.79 m/s, 269° | - | - |
| 1778069412 | 19.44° C | 76% | 1010.6 hPa | 0 mm | 1.34 m/s, 207° | - | - |
| 1778069113 | 19.44° C | 75% | 1010.5 hPa | 0 mm | 1.79 m/s, 231° | - | - |
| 1778068948 | 20° C | 75% | 1010.7 hPa | 0 mm | 1.79 m/s, 225° | - | - |
| 1778068943 | 20° C | 76% | 1010.8 hPa | 0 mm | 0.89 m/s, 211° | - | - |
| 1778068814 | 20° C | 75% | 1010.6 hPa | 0 mm | 2.68 m/s, 276° | - | - |
| 1778068511 | 20° C | 74% | 1010.6 hPa | 0 mm | 1.79 m/s, 207° | - | - |
| 1778068212 | 20° C | 74% | 1010.7 hPa | 0 mm | 1.79 m/s, 229° | - | - |
| 1778067913 | 20° C | 75% | 1010.7 hPa | 0 mm | 1.79 m/s, 225° | - | - |
| 1778067610 | 20° C | 76% | 1010.8 hPa | 0 mm | 0.89 m/s, 211° | - | - |
| 1778067311 | 19.44° C | 77% | 1010.8 hPa | 0 mm | 1.79 m/s, 222° | - | - |
| 1778067029 | 19.44° C | 78% | 1010.8 hPa | 0 mm | 1.79 m/s, 160° | - | - |
| 1778067012 | 19.44° C | 78% | 1010.8 hPa | 0 mm | 1.79 m/s, 245° | - | - |
* Rain latest hour (hover to see other rain measurements)
** Current wind speed in m/s (hover to see current wind gust speed)